FW2969 Weather Reports


time (UTC)temp
F
wind
direction
speed
knots
gust
knots
rain 1hr
in
rain 24hr
in
rain mn
in
humidity
%
barometer
mb
20260831200045 67 290 0.0 0.0 0.00 0.00 0.00 94 1010.1
20260831194628 67 290 0.0 0.0 0.00 0.00 0.00 93 1010.0
20260831193044 68 290 0.0 0.0 0.00 0.00 0.00 94 1010.1
20260831191542 68 290 0.0 0.9 0.00 0.00 0.00 93 1010.2
20260831190047 68 290 0.0 0.0 0.00 0.00 0.00 93 1010.2
20260831184552 68 290 0.0 0.0 0.00 0.00 0.00 93 1010.2
20260831183042 69 290 0.0 0.0 0.00 0.00 0.00 93 1010.2
20260831181547 69 290 0.0 0.0 0.00 0.00 0.00 93 1010.2
20260831180039 69 290 0.0 0.9 0.00 0.00 0.00 92 1010.3
20260831174543 69 290 0.0 0.0 0.00 0.00 0.00 92 1010.2
20260831173038 69 290 0.0 0.9 0.00 0.00 0.00 92 1010.1
20260831171544 69 290 0.0 0.0 0.00 0.00 0.00 91 1010.0
20260831170036 70 290 0.0 0.9 0.00 0.00 0.00 91 1009.9
20260831164536 70 290 0.0 1.7 0.00 0.00 0.00 91 1009.8
20260831163039 70 289 0.0 0.9 0.00 0.00 0.00 90 1009.8
20260831161535 70 289 0.0 0.9 0.00 0.00 0.00 89 1009.7
20260831160037 71 288 0.0 1.7 0.00 0.00 0.00 88 1009.5
20260831154537 71 267 0.0 2.6 0.00 0.00 0.00 87 1009.6
20260831153037 72 222 0.0 2.6 0.00 0.00 0.00 85 1009.5
20260831151531 73 286 0.0 2.6 0.00 0.00 0.00 83 1009.5
20260831150030 74 280 1.7 4.3 0.00 0.00 0.00 79 1009.4
20260831144528 75 298 0.9 5.2 0.00 0.00 0.00 78 1009.4
20260831143027 75 309 0.9 5.2 0.00 0.00 0.00 76 1009.4
20260831141526 75 267 0.9 5.2 0.00 0.00 0.00 76 1009.4
20260831140025 75 290 0.9 4.3 0.00 0.00 0.00 77 1009.4
20260831134623 75 293 2.6 7.8 0.00 0.00 0.00 76 1009.3
20260831133022 75 301 0.9 6.1 0.00 0.00 0.00 76 1009.3
20260831131522 75 325 0.9 9.6 0.00 0.00 0.00 74 1009.3
20260831130023 75 308 2.6 10.4 0.00 0.00 0.00 75 1009.3
20260831124520 75 302 2.6 9.6 0.00 0.00 0.00 75 1009.3
20260831123018 75 301 3.5 9.6 0.00 0.00 0.00 74 1009.4
20260831121520 76 319 1.7 7.8 0.00 0.00 0.00 73 1009.4
20260831120018 76 309 1.7 9.6 0.00 0.00 0.00 71 1009.4
20260831114522 75 224 1.7 8.7 0.00 0.00 0.00 70 1009.4
20260831113015 76 233 3.5 8.7 0.00 0.00 0.00 67 1009.4
20260831111513 76 271 1.7 6.1 0.00 0.00 0.00 69 1009.6
20260831110017 75 264 2.6 9.6 0.00 0.00 0.00 69 1009.5
20260831104525 75 299 2.6 7.8 0.00 0.00 0.00 72 1009.6
20260831103009 75 236 2.6 9.6 0.00 0.00 0.00 71 1009.7
20260831101508 76 277 1.7 9.6 0.00 0.00 0.00 69 1009.8
20260831100006 75 209 3.5 8.7 0.00 0.00 0.00 69 1009.8
20260831094507 75 284 1.7 10.4 0.00 0.00 0.00 65 1009.8
20260831093014 76 276 1.7 10.4 0.00 0.00 0.00 64 1010.0
20260831091505 75 280 1.7 7.0 0.00 0.00 0.00 66 1010.0
20260831090003 75 319 3.5 7.8 0.00 0.00 0.00 64 1010.0
20260831084502 76 280 1.7 9.6 0.00 0.00 0.00 63 1010.0
20260831083001 77 316 2.6 8.7 0.00 0.00 0.00 60 1010.1
20260831081601 77 263 0.9 7.0 0.00 0.00 0.00 55 1010.1
20260831080115 76 305 1.7 5.2 0.00 0.00 0.00 55 1010.1
20260831074604 75 314 1.7 7.8 0.00 0.00 0.00 55 1010.1
20260831073054 75 268 1.7 5.2 0.00 0.00 0.00 54 1010.1
20260831071605 75 302 1.7 5.2 0.00 0.00 0.00 55 1010.0
20260831070053 75 307 0.9 5.2 0.00 0.00 0.00 54 1010.0
20260831064551 75 255 0.0 3.5 0.00 0.00 0.00 54 1010.0
20260831063050 75 326 0.0 1.7 0.00 0.00 0.00 55 1009.9
20260831061549 75 304 0.0 1.7 0.00 0.00 0.00 55 1009.9
20260831060059 74 88 0.0 0.0 0.00 0.00 0.00 56 1009.8
20260831054545 74 88 0.0 1.7 0.00 0.00 0.00 56 1009.8
20260831053048 73 90 0.0 0.0 0.00 0.00 0.00 58 1009.7
20260831051542 72 90 0.0 0.0 0.00 0.00 0.00 63 1009.6
20260831050038 71 90 0.0 0.9 0.00 0.00 0.00 69 1009.5
20260831044532 69 90 0.0 0.0 0.00 0.00 0.00 74 1009.5
20260831043035 67 90 0.0 0.9 0.00 0.00 0.00 76 1009.4
20260831041524 65 90 0.0 0.9 0.00 0.00 0.00 77 1009.3
20260831040023 65 90 0.0 0.9 0.00 0.00 0.00 77 1009.3
20260831034522 65 90 0.0 0.9 0.00 0.01 0.00 75 1009.2
20260831033021 65 90 0.0 0.9 0.00 0.01 0.00 74 1009.2
20260831031520 65 89 0.0 0.9 0.00 0.01 0.00 72 1009.1
20260831030019 65 89 0.0 1.7 0.00 0.01 0.00 69 1009.1
20260831024524 65 88 0.0 1.7 0.00 0.07 0.00 69 1009.1
20260831023117 65 92 0.0 2.6 0.00 0.07 0.00 70 1009.1
20260831021517 65 105 0.0 1.7 0.00 0.07 0.00 70 1009.1
20260831020017 65 108 0.0 0.9 0.00 0.07 0.00 69 1009.2
20260831014516 65 108 0.0 0.9 0.00 0.07 0.00 69 1009.1
20260831013034 65 108 0.0 0.9 0.00 0.07 0.00 69 1009.2
20260831011519 65 110 0.0 0.9 0.00 0.07 0.00 69 1009.1
20260831010018 64 111 0.0 0.9 0.00 0.07 0.00 69 1009.1
20260831004514 64 111 0.0 0.9 0.00 0.08 0.00 70 1009.1
20260831003020 64 111 0.0 0.9 0.00 0.08 0.00 71 1009.0
20260831001521 64 112 0.0 1.7 0.00 0.08 0.00 72 1009.1
20260831000012 64 115 0.0 0.9 0.00 0.08 0.00 74 1009.0
20260830234510 64 115 0.0 0.0 0.00 0.08 0.00 74 1008.9
20260830233011 64 115 0.0 0.0 0.00 0.08 0.00 73 1008.8
20260830231508 65 115 0.0 0.0 0.00 0.08 0.00 72 1008.9
20260830230007 65 115 0.0 0.9 0.00 0.08 0.00 71 1008.9
20260830224508 65 115 0.0 0.9 0.00 0.08 0.00 71 1008.9
20260830223003 66 115 0.0 0.0 0.00 0.08 0.00 70 1008.9
20260830221503 66 115 0.0 0.0 0.00 0.08 0.00 70 1009.0
20260830220002 66 115 0.0 0.0 0.00 0.08 0.00 71 1009.0
20260830214601 66 115 0.0 0.0 0.00 0.08 0.00 71 1009.0
20260830213058 66 115 0.0 0.0 0.00 0.08 0.00 72 1009.2
20260830211557 66 115 0.0 0.0 0.00 0.08 0.00 72 1009.2
20260830210109 66 115 0.0 0.9 0.00 0.08 0.00 75 1009.2
20260830204606 65 115 0.0 0.9 0.00 0.08 0.08 76 1009.2
20260830203051 65 115 0.0 0.0 0.00 0.08 0.08 77 1009.0
20260830201555 66 115 0.0 0.0 0.00 0.08 0.08 78 1008.9